Change the Weather History Date:

Tuesday, November 1, 2011

  Actual Average Record
Temperature  
Mean Temperature 46 °F -  
Max Temperature 57 °F 59 °F 134 °F (1997)
Min Temperature 37 °F 39 °F 25 °F (1986)
Degree Days  
Heating Degree Days 19    
Moisture  
Dew Point 36 °F    
Average Humidity 70    
Maximum Humidity 89    
Minimum Humidity 47    
Precipitation  
Precipitation 0.00 in - - ()
Sea Level Pressure  
Sea Level Pressure 30.32 in    
Wind  
Wind Speed 2 mph (NE)    
Max Wind Speed 8 mph    
Max Gust Speed -    
Visibility 10 miles    
Events      
Averages and records for this station are not official NWS values.
T = Trace of Precipitation, MM = Missing Value Source: NWS Daily Summary

Daily Weather History Graph

Daily Weather History Graph

Search for Another Location

Airport or City:

Trip Planner

Search our weather history database for the weather conditions in past years. The results will help you decide how hot, cold, wet, or windy it might be!

Date:

Astronomy

Nov. 01, 2011 Rise Set
Actual Time 7:34 AM EDT 6:02 PM EDT
Civil Twilight 7:05 AM EDT 6:30 PM EDT
Nautical Twilight 6:33 AM EDT 7:02 PM EDT
Astronomical Twilight 6:02 AM EDT 7:34 PM EDT
Moon 1:19 PM EDT (11/1) 11:42 PM EDT (11/1)
Length of Visible Light 11h 24m
Length of Day
10h 28m
Waxing Crescent, 39% of the Moon is Illuminated
Nov 1
Waxing Crescent
Nov 2
First Quarter
Nov 10
Full
Nov 18
Last Quarter
Nov 25
New

Hourly Weather History & Observations

Time (EDT) Temp. Windchill Dew Point Humidity Pressure Visibility Wind Dir Wind Speed Gust Speed Precip Events Conditions
12:53 AM 41.0 °F 39.0 °F 33.1 °F 73% 30.27 in 10.0 mi NNE 3.5 mph - N/A   Partly Cloudy
1:53 AM 42.1 °F 40.2 °F 33.1 °F 70% 30.27 in 10.0 mi NE 3.5 mph - N/A   Mostly Cloudy
2:53 AM 42.1 °F 40.2 °F 34.0 °F 73% 30.27 in 10.0 mi NNE 3.5 mph - N/A   Mostly Cloudy
3:53 AM 39.9 °F - 35.1 °F 83% 30.27 in 10.0 mi Calm Calm - N/A   Mostly Cloudy
4:53 AM 41.0 °F - 35.1 °F 79% 30.27 in 10.0 mi Calm Calm - N/A   Overcast
5:53 AM 39.9 °F - 34.0 °F 79% 30.29 in 10.0 mi Calm Calm - N/A   Mostly Cloudy
6:53 AM 39.9 °F - 36.0 °F 86% 30.29 in 10.0 mi Calm Calm - N/A   Overcast
7:53 AM 37.9 °F 34.4 °F 35.1 °F 89% 30.31 in 7.0 mi West 4.6 mph - N/A   Clear
9:53 AM 46.9 °F - 39.0 °F 74% 30.32 in 10.0 mi Calm Calm - N/A   Clear
10:53 AM 50.0 °F - 39.0 °F 66% 30.34 in 10.0 mi ENE 4.6 mph - N/A   Clear
11:53 AM 52.0 °F - 39.0 °F 61% 30.34 in 10.0 mi Calm Calm - N/A   Clear
12:53 PM 55.0 °F - 37.9 °F 53% 30.32 in 10.0 mi NE 8.1 mph - N/A   Partly Cloudy
1:53 PM 55.0 °F - 37.0 °F 51% 30.31 in 10.0 mi Variable 3.5 mph - N/A   Scattered Clouds
2:53 PM 55.9 °F - 36.0 °F 47% 30.31 in 10.0 mi Calm Calm - N/A   Partly Cloudy
3:53 PM 55.0 °F - 36.0 °F 49% 30.31 in 10.0 mi NNE 8.1 mph - N/A   Clear
4:53 PM 55.0 °F - 37.0 °F 51% 30.32 in 10.0 mi NE 4.6 mph - N/A   Clear
5:53 PM 53.1 °F - 36.0 °F 52% 30.32 in 10.0 mi Calm Calm - N/A   Clear
6:53 PM 48.0 °F - 37.0 °F 66% 30.33 in 10.0 mi Calm Calm - N/A   Clear
7:53 PM 44.1 °F - 36.0 °F 73% 30.35 in 10.0 mi Calm Calm - N/A   Clear
8:53 PM 43.0 °F - 37.0 °F 80% 30.36 in 9.0 mi Calm Calm - N/A   Clear
9:53 PM 41.0 °F - 36.0 °F 82% 30.37 in 9.0 mi Calm Calm - N/A   Clear
10:53 PM 39.9 °F - 36.0 °F 86% 30.36 in 8.0 mi Calm Calm - N/A   Clear
11:53 PM 37.9 °F - 35.1 °F 89% 30.36 in 6.0 mi Calm Calm - N/A   Clear